Location: Alfortville
(48.8058°N, 2.4204°E)
Time: 13:17:50
(UTC+00:00)

Meteor 1-19 Rocket - Pass Details

Date: 10 December 2023
Orbit: 806 x 928 km, 81.2° (Epoch: 01 March)

Event Time Altitude Azimuth Distance (km) Brightness Sun altitude
Rises 04:11:27 0° 357° (N) 3,588 7.5 -31.9°
Reaches altitude 10° 04:15:10 10° 20° (NNE) 2,631 6.9 -31.3°
Maximum altitude 04:18:35 15° 55° (NE) 2,248 6.9 -30.7°
Drops below altitude 10° 04:21:58 10° 90° (E) 2,593 7.6 -30.2°
Sets 04:25:34 0° 113° (ESE) 3,506 8.4 -29.6°
